Regional Weather Roundup
Issued by NWS

Home | Current Version | Previous Version | Graphics & Text | Print | Product List | Glossary On
Versions: 1 2 3 4 5 6 7 8 9 10 11 12 13 14 15 16 17 18 19 20 21 22 23 24 25 26 27 28 29 30 31 32 33 34 35 36 37 38 39 40 41 42 43 44 45 46 47 48 49 50
000
ASUS43 KMKX 251621
RWRWI

WISCONSIN REGIONAL WEATHER ROUNDUP
NATIONAL WEATHER SERVICE MILWAUKEE/SULLIVAN WI
1100 AM CDT WED APR 25 2018

NOTE: "FAIR" INDICATES FEW OR NO CLOUDS BELOW 12,000 FEET WITH NO
SIGNIFICANT WEATHER AND/OR OBSTRUCTIONS TO VISIBILITY.

WIZ001-002-006>008-014>016-023>028-251700-
NORTHWEST WISCONSIN

CITY           SKY/WX    TMP DP  RH WIND       PRES   REMARKS
SUPERIOR ARPT  FAIR      44  27  50 CALM      30.22F
ASHLAND        FAIR      42  24  49 CALM      30.21F
HAYWARD        FAIR      45  26  47 CALM      30.19F
SIREN          FAIR      45  25  45 SW6       30.22S
CUMBERLAND     FAIR      39  27  60 CALM      30.22S
RICE LAKE      FAIR      44  29  55 W5        30.23S
CHETEK         FAIR      44  28  53 E5        30.21F
LADYSMITH      FAIR      45  28  51 NW6       30.21S
EAU CLAIRE     FAIR      46  28  49 SW6       30.21F
MENOMONIE      FAIR      46  26  44 SW3       30.22F
NEW RICHMOND   FAIR      46  24  41 N3        30.22F
OSCEOLA        FAIR      46  26  45 SW3       30.26S
$$

WIZ003>005-009-010-017-018-251700-
NORTH CENTRAL WISCONSIN

CITY           SKY/WX    TMP DP  RH WIND       PRES   REMARKS
MANITOWISH WTR FAIR      38  24  57 N6        30.17S WCI  33
ARBOR VITAE    FAIR      42  29  60 N8        30.16F
WOODRUFF       FAIR      42  29  60 N8        30.16F
RHINELANDER    FAIR      41  28  60 N8        30.16F
EAGLE RIVER    FAIR      41  24  52 N8        30.14F
LAND O LAKES   FAIR      40  25  55 NW8       30.16F WCI  34
PHILLIPS       FAIR      42  27  54 NW6       30.17F
TOMAHAWK       FAIR      42  28  57 N5        30.17F
MEDFORD        FAIR      42  29  61 NW5       30.17S
MERRILL        FAIR      43  29  56 NE9       30.17F
$$

WIZ029-030-035-036-043>047-251700-
CENTRAL WISCONSIN

CITY           SKY/WX    TMP DP  RH WIND       PRES   REMARKS
WAUSAU         FAIR      43  28  55 VRB3      30.15F
MOSINEE        SUNNY     41  28  60 N10G17    30.18F
MARSHFIELD     FAIR      44  29  55 VRB3      30.17S
STEVENS POINT  FAIR      42  28  57 E3        30.17F
WAUPACA        FAIR      48  29  48 N5        30.17F
WAUTOMA        FAIR      48  27  44 N9        30.16F
WISC RAPIDS    FAIR      48  27  44 VRB5      30.18F
CAMP DOUGLAS   SUNNY     50  32  50 CALM      30.17F
$$

WIZ011>013-019>022-031-037>040-048>050-251700-
NORTHEAST WISCONSIN

CITY           SKY/WX    TMP DP  RH WIND       PRES   REMARKS
ANTIGO         FAIR      39  30  69 N6        30.15F
SHAWANO        FAIR      46  29  51 NE7       30.15F
OCONTO         FAIR      44  29  55 N9        30.15S
STURGEON BAY   FAIR      40  29  64 N13       30.15F WCI  32
GREEN BAY      FAIR      45  32  60 N10G17    30.15F
MANITOWOC      FAIR      45  30  55 N14       30.14S
APPLETON       MOSUNNY   45  27  49 N14       30.14F
CLINTONVILLE   FAIR      45  28  51 N6        30.16F
OSHKOSH        FAIR      46  32  58 N8G17     30.15F
$$

WIZ032>034-041-042-053>061-251700-
SOUTHWEST WISCONSIN

CITY           SKY/WX    TMP DP  RH WIND       PRES   REMARKS
LA CROSSE      FAIR      50  35  56 W9        30.20F
SPARTA         FAIR      49  32  52 NW5       30.19F
VIROQUA        FAIR      50  35  56 NW3       30.17F
BOSCOBEL       FAIR      56  33  42 N8        30.17F
PRAIRIE DU CHI FAIR      54  34  46 W10G17    30.17F
PLATTEVILLE    FAIR      54  34  47 N10G20    30.16S
$$

WIZ056-057-062-063-064-067-068-251700-
SOUTH CENTRAL WISCONSIN

CITY           SKY/WX    TMP DP  RH WIND       PRES   REMARKS
REEDSBURG      FAIR      50  32  49 NW7       30.16F
BARABOO/DELLS  FAIR      49  29  46 N6        30.16F
LONE ROCK      FAIR      53  34  48 NW9G22    30.16F
MINERAL POINT  FAIR      54  32  43 N7G16     30.15S
MADISON        FAIR      51  33  50 N10G23    30.14F
MIDDLETON      FAIR      53  32  45 N12G17    30.15F
WATERTOWN      FAIR      49  34  56 N9G18     30.14S
MONROE         FAIR      52  32  46 N10G18    30.13F
JANESVILLE     SUNNY     54  30  40 N14       30.13F
$$

WIZ051-052-058>065-066-070>072-251700-
SOUTHEAST WISCONSIN

CITY           SKY/WX    TMP DP  RH WIND       PRES   REMARKS
MILWAUKEE      FAIR      49  31  49 NE15G23   30.13S
WAUKESHA       SUNNY     50  30  46 N8        30.13S
MILWAUKEE/TIMM SUNNY     50  27  40 N12G18    30.13S
RACINE         FAIR      47  31  53 N16G32    30.14S
BURLINGTON     FAIR      53  31  43 N13G18    30.12F
KENOSHA        FAIR      51  29  42 NE16G23   30.12F
FOND DU LAC    FAIR      45  31  58 NE14      30.16S
SHEBOYGAN      FAIR      49  33  54 N12       30.13S
WEST BEND      FAIR      48  30  49 NW10      30.13S
JUNEAU         FAIR      46  32  57 N12       30.16S
$$

LSZ147-162-251700-
LAKE SUPERIOR

STATION/POSITION TIME  TEMP    WIND        PRES    WAVE
                       AIR SEA DIR/SP/G            HT/PER
                 (UTC) (F)     (DEG/KT/KT) (MB)    (FT/S)
DEVILS ISLAND    1600   36     300/  4/  5 1024.4F
SAXON HARBOR     1530   35     310/  2/  3 1023.4F
$$

LMZ867-665-643>646-251700-
LAKE MICHIGAN

STATION/POSITION TIME  TEMP    WIND        PRES    WAVE
                       AIR SEA DIR/SP/G            HT/PER
                 (UTC) (F)     (DEG/KT/KT) (MB)    (FT/S)
NORTHPORT PIER   1540   36                 1020.3F
KEWAUNEE LAKESHO 1600   44     360/  7/ 15 1019.8
SHEBOYGAN LAKESH 1600   39      30/  9/  9 1020.9S
PORT WASHINGTON  1530   49     360/  7/ 15 1021.0F
MILWAUKEE LAKESH 1600   42      40/ 14/ 16   N/A
KENOSHA   LAKESH 1600   42                 1020.3
$$

TC  - TEMPERATURE IN CELSIUS
VSB - VISIBILITY IN STATUTE MILES
WCI - WIND CHILL INDEX
HX  - HEAT INDEX




USA.gov is the U.S. government's official web portal to all federal, state and local government web resources and services.